FENGYUN 1C DEB, 43213

Orbit data source: Space-Track

FENGYUN 1C DEB, 43213 is space debris in SSO originally from a launch on Mon, 10 May 1999 UTC launched from the Taiyaun Space Center, China (TSC). Fengyun 1C debris stems from the Chinese weather satellite Fengyun-1C, which was intentionally destroyed by a Chinese anti-satellite missile in 2007. This event dramatically increased the amount of space debris, with thousands of trackable fragments posing hazards to satellites and human spaceflight. The Fengyun 1C debris cloud has become a focal point in discussions about space sustainability and the need for international regulations to prevent the creation of new debris.

Loading next visibility...
FENGYUN 1C DEB details
Identifier
43213, 1999-025EYM
Orbit
SSO
Last TLE update9 hours ago
Origin
Flag of CNCASC (CN / PRC)
ManufacturerUnknown
MissionSpacecraft
Bus & MotorUnknown
MassUnknown
Launch date (UTC)
1999-05-10 (26 years ago)
Launch vehicleUnknown
Launch site
Taiyaun Space Center, China (TSC)
Object type
Payload
Rocket body
Debris
Shape & HBRUnknown
Radar Cross SectionSmall (<0.1 m²)

Expand to show TLE details & history

TLE from 9 hours ago
0 FENGYUN 1C DEB
1 43213U 99025EYM 24361.13672365  .00007113  00000-0  32605-2 0  9997
2 43213  98.7608  62.2579 0058030 164.9451 195.3470 14.20719017353743
Epoch: 2024-12-26T03:16Z
Definitive object data (Epoch: 2024-12-26T03:16:52.923Z)
Latitude0.00002°
Longitude-82.08306°
Altitude866.159 km
Speed7.399 km/s
True Right ascension04h 09m 01s
True Declination0° 00' 00"
Sunlit
Object was in full shadow at TLE epoch
Visualization TLE readout
Latitude81.18949°
Longitude-163.21195°
Altitude825.412 km
Speed7.453 km/s
Apparent Right ascension23h 22m 03s
Apparent Declination26° 48' 49"
Sunlit
Object is in daylight
Visualization observer readout
Local Sidereal Time11:30:30
Azimuth2.051° NNE
Elevation-23.241°
Doppler factor1
Orbital elements
Apogee altitude861.853 km
Perigee altitude778.311 km
Semi-major axis7,198.219 km
Eccentricity0.005803
Inclination98.7608°
RAAN62.2579°
Arg. of periapsis164.9451°
True anomaly195.17223°
Mean anomaly195.347°
Eccentric anomaly195.25949°
Mean motion3.5539 °/min
BSTAR0.0032605
Orbital period101.3 mins
Loading maneuver chart data...
Loading historical data...
Loading historical data...
Loading historical data...
Loading historical data...
Loading historical data...
Loading historical data...
Loading historical data...

FENGYUN 1C DEB Visibility forecast

Observer location: undefined°, undefined

Span
Click to sort rows by Start time (UTC) header in descending order
Start Az.
Max El. time (UTC)
Max El. Az.
Max El.
End time (UTC)
End Az.
8 mins2024-12-26 17:24:02.235Z7.594° NNE2024-12-26 17:27:02.235Z321.795° NNW43.556°2024-12-26 17:32:02.235Z201.845° SSW
6 mins2024-12-27 03:07:02.235Z98.402° ESE2024-12-27 03:09:02.235Z70.903° E20.758°2024-12-27 03:13:02.235Z18.701° NNE
9 mins2024-12-27 04:45:02.235Z189.876° SSW2024-12-27 04:49:02.235Z253.28° W36.872°2024-12-27 04:54:02.235Z333.348° NNW
|